Weather History for Harlingen, TX

Change the Weather History Date:

Thursday, January 24, 2013

  Actual Average Record
Temperature  
Mean Temperature 68 °F 61 °F  
Max Temperature 83 °F 71 °F 94 °F (2001)
Min Temperature 53 °F 50 °F 22 °F (1929)
Degree Days  
Heating Degree Days 0 6  
Month to date heating degree days 176 160  
Since 1 July heating degree days 289 408  
Cooling Degree Days 3 2  
Month to date cooling degree days 22 44  
Year to date cooling degree days 22 44  
Growing Degree Days 18 (Base 50)    
Moisture  
Dew Point 58 °F    
Average Humidity 73    
Maximum Humidity 100    
Minimum Humidity 46    
Precipitation  
Precipitation 0.01 in 0.04 in 0.78 in (1926)
Month to date precipitation 2.55 0.75  
Year to date precipitation 2.55 0.75  
Sea Level Pressure  
Sea Level Pressure 30.21 in    
Wind  
Wind Speed 10 mph (SSE)    
Max Wind Speed 22 mph    
Max Gust Speed 25 mph    
Visibility 7 miles    
Events Fog    
T = Trace of Precipitation, MM = Missing Value Source: NWS Daily Summary

Daily Weather History Graph

Daily Weather History Graph

Search for Another Location

Airport:

Trip Planner

Search our weather history database for the weather conditions in past years. The results will help you decide how hot, cold, wet, or windy it might be!

Date:

Astronomy

Jan. 24, 2013 Rise Set
Actual Time 7:18 AM CST 6:07 PM CST
Civil Twilight 6:53 AM CST 6:32 PM CST
Nautical Twilight 6:25 AM CST 7:00 PM CST
Astronomical Twilight 5:58 AM CST 7:27 PM CST
Moon 4:13 PM CST (1/24) 5:13 AM CST (1/24)
Length of Visible Light 11h 38m
Length of Day
10h 49m
Waxing Gibbous, 94% of the Moon is Illuminated
Jan 24
Waxing Gibbous
Jan 26
Full
Feb 3
Last Quarter
Feb 10
New
Feb 17
First Quarter

Hourly Weather History & Observations

Time (CST) Temp. Heat Index Dew Point Humidity Pressure Visibility Wind Dir Wind Speed Gust Speed Precip Events Conditions
12:52 AM 57.9 °F - 57.0 °F 97% 30.25 in 10.0 mi SSE 5.8 mph - N/A   Clear
1:52 AM 57.0 °F - 55.9 °F 96% 30.23 in 7.0 mi SSE 6.9 mph - N/A   Clear
2:52 AM 57.9 °F - 55.9 °F 93% 30.23 in 4.0 mi SE 5.8 mph - N/A   Clear
3:22 AM 57.2 °F - 55.4 °F 94% 30.23 in 2.0 mi SE 5.8 mph - N/A   Clear
3:31 AM 55.4 °F - 55.4 °F 100% 30.23 in 0.8 mi Calm Calm - N/A   Clear
3:52 AM 55.0 °F - 55.0 °F 100% 30.24 in 0.5 mi Calm Calm - N/A Fog Fog
4:08 AM 55.4 °F - 53.6 °F 94% 30.23 in 0.2 mi Calm Calm - N/A Fog Fog
4:52 AM 54.0 °F - 54.0 °F 100% 30.23 in 0.2 mi SE 5.8 mph - N/A Fog Fog
5:03 AM 55.4 °F - 53.6 °F 94% 30.23 in 0.2 mi SE 4.6 mph - N/A Fog Fog
5:41 AM 55.4 °F - 53.6 °F 94% 30.23 in 0.5 mi SSE 5.8 mph - N/A Fog Fog
5:52 AM 54.0 °F - 54.0 °F 100% 30.23 in 0.2 mi SSE 5.8 mph - N/A Fog Fog
5:54 AM 53.6 °F - 53.6 °F 100% 30.23 in 5.0 mi SSE 5.8 mph - N/A   Clear
6:52 AM 55.0 °F - 54.0 °F 96% 30.24 in 3.0 mi South 4.6 mph - 0.01 in   Clear
7:52 AM 55.0 °F - 54.0 °F 96% 30.23 in 5.0 mi South 4.6 mph - N/A   Clear
8:52 AM 64.0 °F - 63.0 °F 96% 30.25 in 9.0 mi SSE 6.9 mph - N/A   Clear
9:52 AM 73.0 °F - 64.9 °F 76% 30.27 in 10.0 mi South 9.2 mph - N/A   Clear
10:52 AM 75.9 °F - 63.0 °F 64% 30.28 in 10.0 mi South 12.7 mph - N/A   Scattered Clouds
11:52 AM 78.1 °F - 62.1 °F 58% 30.26 in 10.0 mi South 11.5 mph - N/A   Partly Cloudy
12:52 PM 80.1 °F 81.1 °F 61.0 °F 52% 30.22 in 10.0 mi SSE 12.7 mph 19.6 mph N/A   Partly Cloudy
1:52 PM 82.0 °F 82.1 °F 59.0 °F 45% 30.18 in 10.0 mi South 11.5 mph - N/A   Clear
2:52 PM 82.9 °F 82.8 °F 59.0 °F 44% 30.15 in 10.0 mi SSE 12.7 mph 20.7 mph N/A   Clear
3:52 PM 82.0 °F 82.4 °F 60.1 °F 47% 30.14 in 10.0 mi SSE 18.4 mph 23.0 mph N/A   Clear
4:52 PM 79.0 °F - 62.1 °F 56% 30.14 in 10.0 mi SSE 18.4 mph - N/A   Clear
5:52 PM 73.9 °F - 62.1 °F 66% 30.14 in 10.0 mi SSE 18.4 mph 25.3 mph N/A   Clear
6:52 PM 70.0 °F - 63.0 °F 78% 30.15 in 10.0 mi SSE 16.1 mph - N/A   Clear
7:52 PM 68.0 °F - 63.0 °F 84% 30.17 in 10.0 mi SSE 13.8 mph - N/A   Clear
8:52 PM 66.0 °F - 62.1 °F 87% 30.18 in 10.0 mi SSE 8.1 mph - N/A   Clear
9:52 PM 64.0 °F - 61.0 °F 90% 30.19 in 10.0 mi SE 8.1 mph - N/A   Clear
10:52 PM 60.1 °F - 57.9 °F 93% 30.19 in 10.0 mi SSE 6.9 mph - N/A   Clear
11:52 PM 59.0 °F - 57.9 °F 96% 30.18 in 9.0 mi SSE 8.1 mph - N/A   Clear